Location: Heidgraben
(53.7081°N, 9.6576°E)
Time: 20:34:28
(UTC+00:00)

Cosmos 1743 Rocket - Pass Details

Date: 05 July 2020
Orbit: 605 x 631 km, 82.6° (Epoch: 14 August)

Event Time Altitude Azimuth Distance (km) Brightness Sun altitude
Exits shadow 23:12:34 19° 153° (SSE) 1,443 4.9 -13.6°
Maximum altitude 23:15:13 41° 93° (E) 891 4.3 -13.6°
Drops below altitude 10° 23:19:19 10° 23° (NNE) 1,978 7.2 -13.6°
Sets 23:21:38 0° 16° (NNE) 2,891 8.5 -13.6°
